Home > Weather > Elverum > Past weeks

Flag for Norway Past Weather in Elverum, Norway — Yesterday and Last 2 Weeks

Now
64 °F

Mild.


Feels Like: 64 °F
Forecast: 56 / 67 °F
Wind: 3 mph from South

Location: Haugedalshogda

Current Time: Jun 25, 2016 at 9:04:59 AM

Latest Report: Jun 25, 2016 at 8:00 AM


Visibility: N/A

Pressure: 29.93 "Hg

Humidity: 82%

Dew Point: 59 °F

Location of ElverumLocation

Past Weather in Elverum — Graph

°F

Elverum Temperature Yesterday

Maximum temperature yesterday: 69 °F (at 1:00 PM)
Minimum temperature yesterday: 39 °F (at 4:00 AM)
Average temperature yesterday: 58 °F

High & Low Weather Summary for the Past Weeks

 TemperatureHumidityPressure
High74 °F (Jun 23, 4:00 PM)100% (Jun 21, 5:00 AM)30.16 "Hg (Jun 21, 5:00 AM)
Low32 °F (Jun 11, 4:00 AM)25% (Jun 14, 6:00 PM)29.57 "Hg (Jun 16, 8:00 PM)
Average56 °F67%29.86 "Hg
* Reported Jun 10 8:00 AM — Jun 25 8:00 AM, Elverum, Weather by CustomWeather, © 2016

Note: Actual official high and low records may vary slightly from our data, if they occured in-between our weather recording intervals... More about our weather records

Advertising

Elverum Weather History for the Previous 24 Hours

Scroll right to see more
 ConditionsComfort  
Time TempWeatherWind HumidityBarometerVisibility
8:00 AM
Sat, Jun 25
64 °FMild.3 mph82%29.93 "HgN/A
7:00 AM61 °FCool.3 mph98%29.93 "HgN/A
6:00 AM58 °FCool.1 mphN/A29.92 "HgN/A
5:00 AM53 °FCool.1 mphN/A29.93 "HgN/A
4:00 AM55 °FCool.1 mphN/A29.91 "HgN/A
3:00 AM55 °FCool.2 mphN/A29.91 "HgN/A
2:00 AM54 °FCool.1 mph99%29.91 "HgN/A
1:00 AM56 °FCool.1 mph99%29.91 "HgN/A
12:00 AM59 °FCool.No wind99%29.91 "HgN/A
11:00 PM
Fri, Jun 24
61 °FCool.1 mph99%29.91 "HgN/A
10:00 PM60 °FCool.1 mph99%29.91 "HgN/A
9:00 PM60 °FCool.No wind98%29.91 "HgN/A
8:00 PM60 °FCool.1 mph97%29.92 "HgN/A
7:00 PM61 °FCool.1 mph94%29.93 "HgN/A
6:00 PM62 °FCool.1 mph88%29.95 "HgN/A
5:00 PM63 °FMild.2 mph87%29.97 "HgN/A
4:00 PM66 °FMild.1 mph71%29.98 "HgN/A
3:00 PM67 °FMild.2 mph63%29.98 "HgN/A
2:00 PM68 °FMild.5 mph63%29.99 "HgN/A
1:00 PM69 °FMild.2 mph55%29.98 "HgN/A
12:00 PM67 °FMild.1 mph57%30.01 "HgN/A
11:00 AM68 °FMild.2 mph56%30.02 "HgN/A
10:00 AM66 °FMild.2 mph59%30.04 "HgN/A
9:00 AM64 °FMild.1 mph64%30.05 "HgN/A
Weather by CustomWeather, © 2016

See weather overviewHow to use our weather pages